TimeCST,TemperatureF,Dew PointF,Humidity,Sea Level PressureIn,VisibilityMPH,Wind Direction,Wind SpeedMPH,Gust SpeedMPH,PrecipitationIn,Events,Conditions,WindDirDegrees,DateUTC
12:51 AM,64.0,61.0,90,29.96,8.0,SE,10.4,-,0.00,,Light Drizzle,130,2013-03-09 06:51:00
1:51 AM,64.0,61.0,90,29.93,10.0,SE,10.4,-,0.00,,Light Drizzle,130,2013-03-09 07:51:00
2:51 AM,64.0,61.0,90,29.90,10.0,SSE,12.7,-,0.00,,Overcast,150,2013-03-09 08:51:00
3:21 AM,62.6,62.6,100,29.92,5.0,SE,11.5,-,0.00,,Light Drizzle,140,2013-03-09 09:21:00
3:51 AM,63.0,62.1,97,29.87,4.0,SE,10.4,-,0.00,,Light Drizzle,140,2013-03-09 09:51:00
4:51 AM,64.0,63.0,96,29.86,4.0,SE,9.2,-,0.00,,Light Drizzle,140,2013-03-09 10:51:00
5:51 AM,64.0,63.0,96,29.86,4.0,SE,9.2,-,0.01,,Light Drizzle,130,2013-03-09 11:51:00
6:26 AM,64.4,64.4,100,29.90,2.0,SE,9.2,-,0.01,Rain,Light Rain,130,2013-03-09 12:26:00
6:51 AM,64.0,64.0,100,29.87,2.0,SE,10.4,-,0.01,Rain,Light Rain,140,2013-03-09 12:51:00
7:20 AM,64.4,64.4,100,29.91,1.5,SE,9.2,-,0.02,Rain,Light Rain,140,2013-03-09 13:20:00
7:51 AM,64.0,64.0,100,29.87,1.5,SE,10.4,-,0.03,Rain,Light Rain,140,2013-03-09 13:51:00
8:51 AM,64.0,64.0,100,29.87,1.5,SE,11.5,-,0.02,,Light Drizzle,140,2013-03-09 14:51:00
9:36 AM,64.4,64.4,100,29.90,1.5,SE,13.8,-,0.00,,Light Drizzle,140,2013-03-09 15:36:00
9:49 AM,64.4,64.4,100,29.90,3.0,SSE,13.8,-,0.00,,Light Drizzle,150,2013-03-09 15:49:00
9:51 AM,64.9,64.9,100,29.86,3.0,SSE,13.8,-,0.00,,Light Drizzle,150,2013-03-09 15:51:00
10:51 AM,66.0,66.0,100,29.83,3.0,SSE,12.7,-,0.00,,Light Drizzle,150,2013-03-09 16:51:00
11:16 AM,66.2,66.2,100,29.86,5.0,SSE,10.4,-,0.00,,Overcast,150,2013-03-09 17:16:00
11:51 AM,68.0,66.0,93,29.82,6.0,SSE,8.1,-,0.00,,Light Drizzle,160,2013-03-09 17:51:00
12:36 PM,69.8,66.2,88,29.84,6.0,SSE,8.1,-,0.00,,Overcast,150,2013-03-09 18:36:00
12:51 PM,70.0,66.9,90,29.78,6.0,SSE,9.2,-,0.00,,Light Drizzle,150,2013-03-09 18:51:00
1:51 PM,75.0,66.0,73,29.73,7.0,SSE,13.8,23.0,0.00,,Overcast,150,2013-03-09 19:51:00
2:51 PM,77.0,64.9,66,29.68,9.0,SSE,20.7,-,N/A,,Mostly Cloudy,150,2013-03-09 20:51:00
3:16 PM,75.2,64.4,69,29.72,10.0,SE,17.3,-,N/A,,Overcast,140,2013-03-09 21:16:00
3:51 PM,77.0,64.9,66,29.66,10.0,SE,18.4,-,N/A,,Mostly Cloudy,130,2013-03-09 21:51:00
4:51 PM,75.0,64.9,71,29.66,10.0,SE,20.7,-,N/A,,Mostly Cloudy,130,2013-03-09 22:51:00
5:48 PM,71.6,64.4,78,29.71,10.0,ESE,19.6,25.3,N/A,,Mostly Cloudy,120,2013-03-09 23:48:00
5:51 PM,72.0,64.9,78,29.66,10.0,ESE,20.7,25.3,N/A,,Mostly Cloudy,120,2013-03-09 23:51:00
6:51 PM,70.0,64.9,84,29.67,10.0,SE,19.6,25.3,N/A,,Overcast,130,2013-03-10 00:51:00
7:51 PM,69.1,64.0,84,29.64,10.0,SE,21.9,27.6,N/A,,Overcast,130,2013-03-10 01:51:00
8:51 PM,69.1,64.0,84,29.65,10.0,SSE,27.6,34.5,N/A,,Overcast,150,2013-03-10 02:51:00
9:48 PM,68.0,64.4,88,29.63,10.0,SSE,24.2,36.8,N/A,,Overcast,160,2013-03-10 03:48:00
9:51 PM,68.0,64.0,87,29.59,10.0,SSE,27.6,36.8,N/A,,Overcast,160,2013-03-10 03:51:00
10:51 PM,68.0,64.0,87,29.66,10.0,SSE,11.5,-,N/A,,Overcast,160,2013-03-10 04:51:00
11:51 PM,68.0,64.0,87,29.63,10.0,South,13.8,20.7,N/A,,Overcast,180,2013-03-10 05:51:00